Flag for U.S.A. Weather past 2 weeks in Eau Claire, Wisconsin, U.S.A.

Now
56 °F

Clear.


Feels Like: 56 °F
Forecast: 57 / 79 °F
Wind: No wind

Location: Eau Claire County Airport

Current Time: Jul 24, 2014 at 3:57:24 AM

Latest Report: Jul 24, 2014 at 2:56 AM


Visibility: 10 mi

Pressure: 30.16 "Hg

Humidity: 93%

Dew point: 54 °F

Location of Eau ClaireLocation

Historic Weather in Eau Claire — Graph

°F

Eau Claire temperature yesterday

Maximum temperature yesterday: 81 °F (at 4:56 PM)
Minimum temperature yesterday: 57 °F (at 4:56 AM)
Average temperature yesterday: 70 °F

Past Weeks' High & Low Weather Summary

 TemperatureHumidityPressure
High90 °F (Jul 21, 3:56 PM)100% (Jul 12, 11:56 PM)30.22 "Hg (Jul 12, 11:56 PM)
Low47 °F (Jul 16, 4:56 AM)33% (Jul 16, 12:56 PM)29.79 "Hg (Jul 22, 4:56 AM)
Average69 °F71%29.98 "Hg
* Reported Jul 9 1:56 AM — Jul 24 1:56 AM, Eau Claire, Weather by CustomWeather, © 2014

Note: Actual official high and low records may vary slightly from our data, if they occured in-between our weather recording intervals... More about our weather records

Advertising

Eau Claire weather history for previous 24 hours

 ConditionsComfort  
Time TempWeatherWind HumidityBarometerVisibility
1:56 AM
Jul 24
58 °FClear.No wind90%30.16 "Hg10 mi
12:56 AM60 °FClear.7 mph86%30.16 "Hg10 mi
11:56 PM
Jul 23
60 °FClear.5 mph90%30.15 "Hg10 mi
10:56 PM62 °FClear.3 mph80%30.15 "Hg10 mi
9:56 PM65 °FClear.5 mph76%30.15 "Hg10 mi
8:56 PM68 °FSunny.5 mph68%30.15 "Hg10 mi
7:56 PM75 °FSunny.5 mph52%30.14 "Hg10 mi
6:56 PM78 °FSunny.9 mph43%30.14 "Hg10 mi
5:56 PM80 °FSunny.10 mph36%30.15 "Hg10 mi
4:56 PM81 °FSunny.8 mph35%30.16 "Hg10 mi
3:56 PM79 °FPartly sunny.3 mph41%30.17 "Hg10 mi
2:56 PM80 °FPassing clouds.3 mph41%30.18 "Hg10 mi
1:56 PM80 °FScattered clouds.5 mph41%30.19 "Hg10 mi
12:56 PM79 °FSunny.6 mph44%30.19 "Hg10 mi
11:56 AM79 °FScattered clouds.5 mph42%30.19 "Hg10 mi
10:56 AM76 °FSunny.3 mph50%30.21 "Hg10 mi
9:56 AM73 °FSunny.5 mph59%30.21 "Hg10 mi
8:56 AM70 °FSunny.3 mph73%30.22 "Hg10 mi
7:56 AM66 °FSunny.No wind84%30.22 "Hg10 mi
6:56 AM60 °FSunny.No wind100%30.21 "Hg10 mi
5:56 AM57 °FClear.No wind96%30.20 "Hg10 mi
4:56 AM57 °FClear.No wind96%30.18 "Hg10 mi
3:56 AM59 °FClear.No wind96%30.16 "Hg7 mi
Weather by CustomWeather, © 2014

See weather overviewHow to use our weather pages